[[[{"header":{"parameterUnit":"kt","parameterCategory":2,"dx":1,"dy":1,"la1":30.253999710083008,"la2":30.299108505249023,"lo1":-89.0895004272461,"lo2":-89.04439544677734,"nx":28,"ny":28,"refTime":"2022-10-27T21:00:00:Z","depth":0,"parameterNumber":1,"parameterNumberName":"U-component_of_WINDS"},"data":[-5.1216,-5.1372,-5.1361,-5.1533,-5.1551,-5.1666,-5.1703,-5.1749,-5.1783,-5.1918,-5.1993,-5.1996,-5.2024,-5.2109,-5.2189,-5.2188,-5.2222,-5.2284,-5.2273,-5.2003,-5.1965,-5.1928,-5.189,-5.2293,-5.2293,-5.2552,-5.2555,-5.2557,-5.1014,-5.1035,-5.1124,-5.1201,-5.1276,-5.1208,-5.1263,-5.133,-5.1435,-5.1478,-5.1552,-5.1669,-5.176,-5.1767,-5.1851,-5.1922,-5.1894,-5.1946,-5.1939,-5.1944,-5.1656,-5.1616,-5.1967,-5.1967,-5.1966,-5.1966,-5.1966,-5.1966,-5.0644,-5.0739,-5.0779,-5.0875,-5.0911,-5.0963,-5.1051,-5.1053,-5.1139,-5.1228,-5.1197,-5.1315,-5.1355,-5.1452,-5.1482,-5.1572,-5.1512,-5.1565,-5.1577,-5.159,-5.1606,-5.1229,-5.1586,-5.1585,-5.1584,-5.1583,-5.1582,0,-5.0369,-5.0353,-5.0438,-5.0519,-5.0588,-5.065,-5.0704,-5.0759,-5.0719,-5.0792,-5.0896,-5.0954,-5.1067,-5.1162,-5.1239,-5.1259,-5.1195,-5.1188,-5.1223,-5.1239,-5.1242,-5.1239,-5.0768,-5.1178,-5.1174,-5.1171,-5.117,-5.1168,-4.9993,-5.0106,-5.0143,-5.0204,-5.0231,-5.0331,-5.0387,-5.0344,-5.0406,-5.0466,-5.0552,-5.0648,-5.0722,-5.089,-5.0891,-5.0976,-5.0945,-5.1102,-5.0957,-5.0967,-5.0944,-5.0937,-5.0947,-5.1131,-5.1136,-5.1139,-5.1143,0,-4.9781,-4.9762,-4.9934,-4.9959,-4.9969,-5.009,-5.011,-5.0204,-5.0196,-5.0323,-5.035,-5.0338,-5.0441,-5.0416,-5.0529,-5.0513,-5.0707,-5.0676,-5.0691,-5.0683,-5.082,-5.0807,-5.1272,-5.1329,-5.0914,-5.0918,-5.0921,0,-4.9452,-4.9603,-4.9564,-4.9666,-4.9831,-4.9784,-4.9948,-4.9958,-4.9993,-5.0092,-5.0016,-5.0111,-5.0065,-5.0156,-5.0133,-5.0287,-5.0309,-5.0305,-5.0297,-5.0312,-5.0312,-5.0343,-5.0323,-5.0277,-5.0275,-5.0272,-5.0271,0,-4.9122,-4.928,-4.9443,-4.9476,-4.9519,-4.9597,-4.9618,-4.9657,-4.9714,-4.9783,-4.9818,-4.9903,-4.9949,-5.0014,-4.9983,-4.9886,-5.0173,-5.0032,-5.0168,-5.0169,-5.0233,-5.0229,-5.0648,-5.0268,-5.0267,-5.0266,-5.0265,0,-4.8853,-4.8925,-4.9166,-4.9199,-4.9242,-4.9351,-4.943,-4.9517,-4.9564,-4.9556,-4.961,-4.9556,-4.9692,-4.9553,-4.9738,-4.9619,-4.9668,-4.9677,-4.9686,-4.9696,-4.9542,-4.978,-5.0182,-5.0222,-4.9705,-4.9701,-4.9697,0,-4.8479,-4.8718,-4.868,-4.8911,-4.9017,-4.8923,-4.9042,-4.9087,-4.9086,-4.9176,-4.9174,-4.9278,-4.917,-4.9199,-4.9293,-4.9296,-4.9451,-4.9275,-4.9402,-4.9408,-4.9391,-4.9761,-4.9827,-5.0097,-4.9637,-4.9643,-4.9648,0,-4.8187,-4.8239,-4.8284,-4.8318,-4.8371,-4.846,-4.8598,-4.869,-4.8751,-4.8811,-4.8924,-4.907,-4.8993,-4.9043,-4.9009,-4.9109,-4.9345,-4.9013,-4.9014,-4.9073,-4.9605,-4.9666,-4.9712,-4.9299,-4.9306,-4.9312,-4.96,0,-4.7781,-4.7899,-4.8018,-4.81,-4.8165,-4.8309,-4.8284,-4.8356,-4.8315,-4.8311,-4.8479,-4.8511,-4.8605,-4.8652,-4.8614,-4.8852,-4.8808,-4.8726,-4.859,-4.8834,-4.8928,-4.8966,-4.8451,-4.8447,-4.8444,-4.8441,0,0,-4.7428,-4.7596,-4.7551,-4.7684,-4.7736,-4.7636,-4.7792,-4.7832,-4.7915,-4.7953,-4.7877,-4.8087,-4.8118,-4.8324,-4.8398,-4.8437,-4.8476,-4.8393,-4.8718,-4.8749,-4.8778,-4.8879,-4.892,-4.8434,-4.8433,-4.8432,-4.8431,0,-4.7274,-4.7307,-4.7463,-4.7502,-4.7557,-4.7546,-4.7584,-4.7622,-4.7627,-4.7792,-4.7708,-4.7805,-4.7977,-4.8019,-4.8062,-4.8368,-4.8299,-4.8399,-4.857,-4.8684,-4.872,-4.8751,-4.8858,-4.8897,-4.8422,-4.8423,-4.8423,0,-4.6981,-4.7009,-4.7082,-4.7198,-4.7234,-4.7347,-4.7197,-4.7324,-4.7407,-4.7294,-4.7459,-4.7474,-4.7529,-4.7728,-4.7817,-4.775,-4.8138,-4.8012,-4.8034,-4.8043,-4.8152,-4.8195,-4.8233,-4.7728,-4.7726,-4.7724,0,0,-4.6852,-4.6962,-4.6979,-4.7163,-4.7191,-4.7178,-4.7236,-4.7202,-4.7253,-4.7274,-4.7292,-4.7345,-4.7443,-4.751,-4.7601,-4.7824,-4.7831,-4.7928,-4.7961,-4.7987,-4.8011,-4.8127,-4.817,-4.7715,-4.7715,-4.7715,0,0,-4.679,-4.6817,-4.6767,-4.6978,-4.7029,-4.7058,-4.7172,-4.7111,-4.7191,-4.7172,-4.7121,-4.7133,-4.7319,-4.7338,-4.7223,-4.7552,-4.7417,-4.7444,-4.7533,-4.7574,-4.7606,-4.7598,-4.7074,0,0,0,0,0,-4.662,-4.6813,-4.6767,-4.6799,-4.6946,-4.7083,-4.7102,-4.7064,-4.6968,-4.7059,-4.7064,-4.6987,-4.7264,-4.7162,-4.7194,-4.7323,-4.7602,-4.7622,-4.7641,-4.7808,-4.7851,-4.7887,0,0,0,0,0,0,-4.6632,-4.6671,-4.6762,-4.68,-4.6833,-4.7076,-4.6906,-4.6901,-4.6958,-4.6941,-4.6988,-4.6988,-4.6959,-4.7143,-4.7172,-4.7295,-4.7064,-4.761,-4.7627,-4.7642,-4.7822,-4.7858,-4.7888,0,0,0,0,0,-4.6641,-4.6673,-4.6919,-4.6797,-4.6825,-4.6821,-4.6898,-4.6893,-4.6936,-4.6945,-4.6943,-4.6902,-4.6963,-4.6986,-4.716,-4.7283,-4.7044,-4.7055,-4.7621,-4.7635,-4.7647,-4.784,0,0,0,0,0,0,-4.6648,-4.6668,-4.6924,-4.6931,-4.6721,-4.6806,-4.6818,-4.6886,-4.6936,-4.6936,-4.6856,-4.6842,-4.6969,-4.6985,-4.7003,-4.728,-4.7027,-4.7038,-4.7045,-4.7631,-4.7642,-4.7651,0,0,0,0,0,0,-4.6651,-4.6675,-4.6927,-4.6834,-4.683,-4.6793,-4.6804,-4.6947,-4.6938,-4.6844,-4.6833,-4.6849,-4.6942,-4.6986,-4.6999,-4.7224,-4.7014,-4.7025,-4.7032,-4.7037,-4.764,-4.7648,0,0,0,0,0,0,-4.6661,-4.6681,-4.6832,-4.6829,-4.6825,-4.6903,-4.6919,-4.7072,-4.6858,-4.6843,-4.6838,-4.6829,-4.6946,-4.6958,-4.6997,-4.7218,-4.7223,-4.7014,-4.7021,-4.7027,-4.703,0,0,0,0,0,0,0,-4.6668,-4.654,-4.6881,-4.6825,-4.6821,-4.6997,-4.6999,-4.7001,-4.6856,-4.6848,-4.684,-4.6833,-4.6951,-4.6963,-4.6975,-4.7212,0,0,-4.7013,-4.7018,0,0,0,0,0,0,0,0,-4.653,-4.6537,-4.6881,-4.6883,-4.6884,-4.6998,-4.6999,-4.7001,-4.6855,-4.6848,-4.6842,-4.6836,-4.6955,-4.6964,-4.6974,0,0,0,0,0,0,0,0,0,0,0,0,0,0,0,-4.6882,-4.6883,0,-4.6998,-4.6999,-4.7,-4.6854,-4.6849,-4.6843,-4.6838,-4.6957,-4.6965,-4.6973,0,0,0,0,0,0,0,0,0,0,0,0,0,0,0,0,0,0,0,0,0,0,0,0,0,0,0,0,0,0,0,0,0,0,0,0,0,0,0,0,0,0,0,0,0,0,0,0,0,0,0,0,0,0,0,0,0,0,0,0,0,0,0,0,0,0,0,0,0]}],[{"header":{"parameterUnit":"kt","parameterCategory":2,"dx":1,"dy":1,"la1":30.253999710083008,"la2":30.299108505249023,"lo1":-89.0895004272461,"lo2":-89.04439544677734,"nx":28,"ny":28,"refTime":"2022-10-27T21:00:00:Z","depth":0,"parameterNumber":2,"parameterNumberName":"V-component_of_WINDS"},"data":[-4.2834,-4.2842,-4.2846,-4.2856,-4.2862,-4.2869,-4.2873,-4.2878,-4.2884,-4.2892,-4.2897,-4.2902,-4.2908,-4.2914,-4.292,-4.2921,-4.2923,-4.2921,-4.2924,-4.2926,-4.2927,-4.2928,-4.2926,-4.2922,-4.2922,-4.292,-4.292,-4.292,-4.2831,-4.2837,-4.2844,-4.2855,-4.2861,-4.2864,-4.2872,-4.2876,-4.2883,-4.289,-4.2896,-4.2903,-4.291,-4.2917,-4.2923,-4.2925,-4.2927,-4.2927,-4.2926,-4.2927,-4.293,-4.2929,-4.2925,-4.2925,-4.2925,-4.2925,-4.2925,-4.2925,-4.2827,-4.2832,-4.2842,-4.285,-4.2857,-4.2863,-4.2869,-4.2875,-4.2882,-4.2891,-4.2896,-4.2903,-4.291,-4.2921,-4.2926,-4.293,-4.2932,-4.2932,-4.2932,-4.2932,-4.2931,-4.293,-4.2932,-4.2932,-4.2932,-4.2932,-4.2932,0,-4.2826,-4.2829,-4.2838,-4.2847,-4.2854,-4.2862,-4.287,-4.2873,-4.2883,-4.2889,-4.2897,-4.2902,-4.2912,-4.2919,-4.2927,-4.2932,-4.2936,-4.2937,-4.2937,-4.2935,-4.2931,-4.2932,-4.2935,-4.2937,-4.2937,-4.2937,-4.2937,-4.2937,-4.2821,-4.2828,-4.2841,-4.2846,-4.2853,-4.2861,-4.2867,-4.2876,-4.2881,-4.2892,-4.2896,-4.2904,-4.2911,-4.2922,-4.293,-4.2937,-4.2939,-4.2939,-4.294,-4.2937,-4.2937,-4.2936,-4.2936,-4.2938,-4.2938,-4.2938,-4.2938,0,-4.2817,-4.2827,-4.2839,-4.2852,-4.2856,-4.2862,-4.2872,-4.2878,-4.2885,-4.2893,-4.2895,-4.2905,-4.2913,-4.2921,-4.2932,-4.2935,-4.2941,-4.2943,-4.2938,-4.2938,-4.2938,-4.2937,-4.2938,-4.2938,-4.2944,-4.2944,-4.2944,0,-4.2816,-4.2825,-4.2839,-4.2846,-4.2855,-4.2864,-4.2873,-4.288,-4.2888,-4.2895,-4.2902,-4.2908,-4.2918,-4.2924,-4.293,-4.2936,-4.2939,-4.2942,-4.2943,-4.2941,-4.294,-4.2943,-4.2943,-4.2948,-4.2948,-4.2948,-4.2948,0,-4.2809,-4.2828,-4.2839,-4.2845,-4.2862,-4.2866,-4.2873,-4.2883,-4.2889,-4.2898,-4.2902,-4.2912,-4.2917,-4.2923,-4.2931,-4.2931,-4.294,-4.2942,-4.2942,-4.2942,-4.2944,-4.2944,-4.2943,-4.2948,-4.2948,-4.2948,-4.2948,0,-4.281,-4.2822,-4.2837,-4.2851,-4.2855,-4.2863,-4.2874,-4.2883,-4.2893,-4.2898,-4.2905,-4.2911,-4.292,-4.2921,-4.2931,-4.2929,-4.2933,-4.2937,-4.2937,-4.2938,-4.2939,-4.2936,-4.2936,-4.2935,-4.2939,-4.2938,-4.2938,0,-4.2797,-4.2818,-4.2827,-4.2842,-4.2853,-4.2861,-4.2869,-4.2879,-4.2886,-4.2895,-4.2902,-4.2913,-4.2916,-4.292,-4.2924,-4.2932,-4.2934,-4.2932,-4.2941,-4.2941,-4.2937,-4.2937,-4.2934,-4.2935,-4.2938,-4.2938,-4.2938,0,-4.279,-4.2812,-4.2815,-4.2822,-4.2839,-4.2849,-4.2859,-4.2872,-4.2877,-4.2889,-4.2896,-4.2912,-4.2914,-4.2921,-4.2928,-4.2932,-4.2933,-4.2934,-4.2934,-4.2932,-4.2939,-4.2936,-4.2936,-4.2936,-4.2936,-4.2936,-4.2937,0,-4.2786,-4.2799,-4.2806,-4.2824,-4.2834,-4.2845,-4.2857,-4.2865,-4.287,-4.2879,-4.2891,-4.2903,-4.2916,-4.292,-4.2926,-4.2933,-4.2933,-4.2936,-4.2938,-4.2938,-4.2939,-4.2939,-4.2936,-4.2936,-4.2936,-4.2936,0,0,-4.277,-4.279,-4.2803,-4.2815,-4.2823,-4.2833,-4.2844,-4.2853,-4.2872,-4.2877,-4.2878,-4.2902,-4.2912,-4.2925,-4.2926,-4.2933,-4.2934,-4.2935,-4.2938,-4.2939,-4.2939,-4.2939,-4.2939,-4.2937,-4.2937,-4.2937,-4.2937,0,-4.2772,-4.2785,-4.2798,-4.2808,-4.2825,-4.2834,-4.2837,-4.2855,-4.2861,-4.2875,-4.2882,-4.2891,-4.2912,-4.292,-4.2927,-4.2933,-4.2938,-4.2936,-4.2935,-4.2939,-4.2939,-4.2939,-4.2939,-4.294,-4.2937,-4.2937,-4.2937,0,-4.2765,-4.278,-4.2788,-4.2811,-4.2822,-4.2834,-4.2839,-4.2852,-4.286,-4.2871,-4.2884,-4.2893,-4.2907,-4.2919,-4.2925,-4.2927,-4.294,-4.2939,-4.2939,-4.294,-4.2944,-4.2944,-4.2944,-4.2944,-4.2944,-4.2944,0,0,-4.2765,-4.2779,-4.2798,-4.2812,-4.2819,-4.2834,-4.2842,-4.285,-4.2864,-4.2869,-4.2881,-4.2893,-4.2904,-4.2911,-4.2923,-4.2936,-4.2939,-4.294,-4.2939,-4.2939,-4.294,-4.2944,-4.2944,-4.2944,-4.2944,-4.2944,0,0,-4.2765,-4.2788,-4.2793,-4.2812,-4.2825,-4.2845,-4.2852,-4.2857,-4.287,-4.287,-4.2883,-4.2887,-4.2899,-4.2908,-4.2905,-4.2924,-4.2925,-4.2926,-4.2918,-4.2918,-4.2918,-4.2915,-4.2912,0,0,0,0,0,-4.2774,-4.2785,-4.2789,-4.2795,-4.2825,-4.2842,-4.2846,-4.2858,-4.2858,-4.2863,-4.2874,-4.2879,-4.2908,-4.2906,-4.291,-4.2913,-4.2942,-4.2943,-4.2943,-4.2935,-4.2935,-4.2934,0,0,0,0,0,0,-4.2776,-4.2783,-4.2789,-4.2809,-4.2816,-4.2842,-4.2845,-4.2849,-4.2858,-4.2859,-4.2877,-4.288,-4.2889,-4.2905,-4.2908,-4.2911,-4.2911,-4.2942,-4.2943,-4.2943,-4.2935,-4.2935,-4.2934,0,0,0,0,0,-4.2778,-4.2783,-4.2829,-4.2809,-4.2815,-4.2833,-4.2845,-4.2848,-4.2855,-4.2872,-4.2875,-4.2863,-4.2889,-4.2893,-4.2907,-4.2909,-4.2908,-4.2909,-4.2943,-4.2943,-4.2943,-4.2935,0,0,0,0,0,0,-4.2779,-4.2785,-4.283,-4.2832,-4.2807,-4.2832,-4.2837,-4.2847,-4.2868,-4.2872,-4.2859,-4.286,-4.2889,-4.2892,-4.2895,-4.2908,-4.2906,-4.2907,-4.2908,-4.2943,-4.2943,-4.2943,0,0,0,0,0,0,-4.2783,-4.2787,-4.2831,-4.2828,-4.2829,-4.2831,-4.2835,-4.2849,-4.2868,-4.2854,-4.2855,-4.2859,-4.2884,-4.2892,-4.2894,-4.2915,-4.2905,-4.2906,-4.2907,-4.2907,-4.2943,-4.2943,0,0,0,0,0,0,-4.2785,-4.2789,-4.2827,-4.2829,-4.283,-4.2855,-4.2843,-4.2873,-4.2867,-4.2853,-4.2866,-4.2866,-4.2884,-4.2886,-4.2893,-4.2913,-4.2915,-4.2905,-4.2906,-4.2906,-4.2907,0,0,0,0,0,0,0,-4.2786,-4.2758,-4.2818,-4.2829,-4.2831,-4.2852,-4.2853,-4.2853,-4.2866,-4.2866,-4.2866,-4.2866,-4.2898,-4.2899,-4.29,-4.2912,0,0,-4.2905,-4.2905,0,0,0,0,0,0,0,0,-4.2757,-4.2758,-4.2818,-4.2818,-4.2819,-4.2852,-4.2853,-4.2853,-4.2866,-4.2866,-4.2866,-4.2866,-4.2898,-4.2899,-4.29,0,0,0,0,0,0,0,0,0,0,0,0,0,0,0,-4.2818,-4.2818,0,-4.2852,-4.2853,-4.2853,-4.2866,-4.2866,-4.2866,-4.2866,-4.2898,-4.2899,-4.29,0,0,0,0,0,0,0,0,0,0,0,0,0,0,0,0,0,0,0,0,0,0,0,0,0,0,0,0,0,0,0,0,0,0,0,0,0,0,0,0,0,0,0,0,0,0,0,0,0,0,0,0,0,0,0,0,0,0,0,0,0,0,0,0,0,0,0,0,0]}]]]